TimeEET,TemperatureF,Dew PointF,Humidity,Sea Level PressureIn,VisibilityMPH,Wind Direction,Wind SpeedMPH,Gust SpeedMPH,PrecipitationIn,Events,Conditions,WindDirDegrees,DateUTC
1:50 AM,39.2,35.6,87,29.77,-9999.0,Calm,Calm,-,N/A,,Clear,0,2013-01-05 23:50:00
4:50 AM,42.8,37.4,81,29.74,6.2,Calm,Calm,-,N/A,,Scattered Clouds,0,2013-01-06 02:50:00
5:50 AM,42.8,37.4,81,29.71,6.2,Calm,Calm,-,N/A,,Scattered Clouds,0,2013-01-06 03:50:00
6:50 AM,42.8,37.4,81,29.71,6.2,North,4.6,-,N/A,,Scattered Clouds,360,2013-01-06 04:50:00
7:20 AM,44.6,37.4,76,29.71,6.2,NNW,8.1,-,N/A,,Mostly Cloudy,340,2013-01-06 05:20:00
7:50 AM,48.2,37.4,66,29.71,6.2,Calm,Calm,-,N/A,,Mostly Cloudy,0,2013-01-06 05:50:00
8:20 AM,48.2,39.2,71,29.74,6.2,North,8.1,-,N/A,,Mostly Cloudy,10,2013-01-06 06:20:00
8:50 AM,50.0,37.4,62,29.74,6.2,NNW,8.1,-,N/A,,Mostly Cloudy,340,2013-01-06 06:50:00
9:20 AM,50.0,35.6,58,29.74,6.2,NNW,8.1,-,N/A,,Mostly Cloudy,340,2013-01-06 07:20:00
9:50 AM,51.8,35.6,54,29.77,6.2,North,11.5,-,N/A,,Mostly Cloudy,10,2013-01-06 07:50:00
10:20 AM,50.0,35.6,58,29.77,6.2,NNE,10.4,-,N/A,,Mostly Cloudy,30,2013-01-06 08:20:00
10:50 AM,51.8,32.0,47,29.77,6.2,NNW,6.9,-,N/A,,Mostly Cloudy,330,2013-01-06 08:50:00
11:20 AM,55.4,35.6,47,29.80,6.2,North,8.1,-,N/A,,Scattered Clouds,350,2013-01-06 09:20:00
11:50 AM,55.4,32.0,41,29.80,6.2,NE,5.8,-,N/A,,Partly Cloudy,50,2013-01-06 09:50:00
12:20 PM,55.4,32.0,41,29.77,6.2,West,4.6,-,N/A,,Partly Cloudy,280,2013-01-06 10:20:00
12:50 PM,57.2,32.0,38,29.77,6.2,North,8.1,-,N/A,,Partly Cloudy,350,2013-01-06 10:50:00
1:20 PM,57.2,30.2,36,29.77,6.2,North,6.9,-,N/A,,Partly Cloudy,350,2013-01-06 11:20:00
1:50 PM,57.2,30.2,36,29.77,6.2,NE,8.1,-,N/A,,Partly Cloudy,40,2013-01-06 11:50:00
2:20 PM,57.2,28.4,33,29.77,6.2,NNW,9.2,-,N/A,,Partly Cloudy,340,2013-01-06 12:20:00
2:50 PM,55.4,28.4,36,29.77,6.2,NNE,5.8,-,N/A,,Partly Cloudy,20,2013-01-06 12:50:00
3:20 PM,55.4,30.2,38,29.77,6.2,North,5.8,-,N/A,,Scattered Clouds,10,2013-01-06 13:20:00
3:50 PM,55.4,28.4,36,29.80,6.2,ENE,4.6,-,N/A,,Scattered Clouds,60,2013-01-06 13:50:00
4:20 PM,55.4,28.4,36,29.80,6.2,NNW,4.6,-,N/A,,Scattered Clouds,330,2013-01-06 14:20:00
4:50 PM,53.6,28.4,38,29.80,6.2,North,5.8,-,N/A,,Scattered Clouds,350,2013-01-06 14:50:00
5:20 PM,51.8,30.2,44,29.83,6.2,NNE,4.6,-,N/A,,Partly Cloudy,30,2013-01-06 15:20:00
5:50 PM,50.0,28.4,43,29.83,6.2,North,6.9,-,N/A,,Partly Cloudy,10,2013-01-06 15:50:00
6:20 PM,48.2,28.4,46,29.83,6.2,North,4.6,-,N/A,,Partly Cloudy,10,2013-01-06 16:20:00
6:50 PM,46.4,30.2,53,29.86,6.2,NNW,4.6,-,N/A,,Partly Cloudy,330,2013-01-06 16:50:00
7:20 PM,44.6,30.2,57,29.89,6.2,NW,4.6,-,N/A,,Partly Cloudy,320,2013-01-06 17:20:00
7:50 PM,44.6,30.2,57,29.89,6.2,NNW,4.6,-,N/A,,Partly Cloudy,340,2013-01-06 17:50:00
10:50 PM,37.4,28.4,70,29.92,6.2,NW,4.6,-,N/A,,Partly Cloudy,310,2013-01-06 20:50:00